Location: Dannhausen
(51.8650°N, 10.1026°E)
Time: 16:43:40
(UTC+00:00)

USA 234 - Pass Details

Date: 09 April 2020
Orbit: 1102 x 1106 km, 123.0° (Epoch: 14 May)

Event Time Altitude Azimuth Distance (km) Brightness Sun altitude
Rises 21:33:15 0° 60° (ENE) 3,926 6.2 -25.8°
Reaches altitude 10° 21:35:45 10° 61° (ENE) 2,967 5.5 -26.0°
Maximum altitude 21:42:19 78° 148° (SSE) 1,130 3.1 -26.5°
Drops below altitude 10° 21:48:52 10° 235° (SW) 2,959 5.4 -26.9°
Sets 21:51:21 0° 237° (WSW) 3,915 6.1 -27.1°
